Weather History for KTYR - August, 2013

Change the Weather History Date:

Wednesday, August 14, 2013

  Actual Average Record
Temperature  
Mean Temperature 82 °F 84 °F  
Max Temperature 89 °F 94 °F 108 °F (1939)
Min Temperature 75 °F 74 °F 52 °F (1967)
Degree Days  
Heating Degree Days 0 0  
Month to date heating degree days 0 0  
Since 1 June heating degree days 0 0  
Since 1 July heating degree days 0 0  
Cooling Degree Days 17 19  
Month to date cooling degree days 322 266  
Year to date cooling degree days 1784 1624  
Since 1 June cooling degree days 1387 1255  
Growing Degree Days 32 (Base 50)    
Moisture  
Dew Point 72 °F    
Average Humidity 74    
Maximum Humidity 94    
Minimum Humidity 53    
Precipitation  
Precipitation 0.15 in 0.09 in 1.63 in (1966)
Month to date precipitation 0.16 1.12  
Year to date precipitation 19.54 27.52  
Snow  
Snow 0.00 in - - ()
Month to date snowfall 0.0  
Since 1 June snowfall 0.0  
Since 1 July snowfall 0.0  
Snow Depth 0.00 in    
Sea Level Pressure  
Sea Level Pressure 29.99 in    
Wind  
Wind Speed 6 mph (NE)    
Max Wind Speed 18 mph    
Max Gust Speed 23 mph    
Visibility 9 miles    
Events Rain , Thunderstorm    
T = Trace of Precipitation, MM = Missing Value Source: NWS Daily Summary

Daily Weather History Graph

Daily Weather History Graph

Search for Another Location

Airport or City:

Trip Planner

Search our weather history database for the weather conditions in past years. The results will help you decide how hot, cold, wet, or windy it might be!

Date:

Astronomy

Aug. 14, 2013 Rise Set
Actual Time 6:45 AM CDT 8:06 PM CDT
Civil Twilight 6:19 AM CDT 8:32 PM CDT
Nautical Twilight 5:48 AM CDT 9:03 PM CDT
Astronomical Twilight 5:16 AM CDT 9:35 PM CDT
Moon 2:15 PM CDT (8/14) 12:11 AM CDT (8/14)
Length of Visible Light 14h 13m
Length of Day
13h 21m
First Quarter, 53% of the Moon is Illuminated
Aug 14
First Quarter
Aug 20
Full
Aug 28
Last Quarter
Sep 5
New
Sep 12
First Quarter

Hourly Weather History & Observations

Time (CDT) Temp. Heat Index Dew Point Humidity Pressure Visibility Wind Dir Wind Speed Gust Speed Precip Events Conditions
12:53 AM 78.1 °F - 72.0 °F 81% 29.96 in 10.0 mi ENE 3.5 mph - N/A   Overcast
1:53 AM 78.1 °F - 72.0 °F 81% 29.95 in 10.0 mi Calm Calm - N/A   Scattered Clouds
2:53 AM 77.0 °F - 72.0 °F 84% 29.94 in 10.0 mi North 4.6 mph - N/A   Mostly Cloudy
3:53 AM 75.9 °F - 72.0 °F 87% 29.94 in 10.0 mi South 5.8 mph - N/A   Mostly Cloudy
4:53 AM 77.0 °F - 73.0 °F 88% 29.94 in 10.0 mi Calm Calm - 0.00 in Rain Light Rain
5:53 AM 75.9 °F - 73.0 °F 91% 29.95 in 10.0 mi Calm Calm - 0.00 in   Mostly Cloudy
6:22 AM 75.2 °F - 73.4 °F 94% 29.99 in 10.0 mi North 4.6 mph - N/A Thunderstorm Scattered Clouds
6:42 AM 75.2 °F - 71.6 °F 89% 30.00 in 10.0 mi North 4.6 mph - N/A   Mostly Cloudy
6:53 AM 75.0 °F - 72.0 °F 90% 29.99 in 10.0 mi Calm Calm - 0.00 in Rain Light Rain
7:00 AM 75.2 °F - 73.4 °F 94% 30.01 in 10.0 mi North 5.8 mph - 0.00 in Rain Light Rain
7:10 AM 75.2 °F - 73.4 °F 94% 30.03 in 10.0 mi NW 8.1 mph - 0.00 in Thunderstorm Overcast
7:25 AM 75.2 °F - 73.4 °F 94% 30.03 in 3.0 mi NNW 6.9 mph - 0.06 in Rain Heavy Rain
7:31 AM 75.2 °F - 73.4 °F 94% 30.02 in 2.5 mi North 5.8 mph - 0.09 in Rain Heavy Rain
7:35 AM 75.2 °F - 73.4 °F 94% 30.02 in 3.0 mi NNE 5.8 mph - 0.10 in Rain Rain
7:53 AM 75.0 °F - 73.9 °F 96% 29.99 in 7.0 mi ENE 4.6 mph - 0.11 in Rain Light Rain
8:53 AM 77.0 °F - 75.0 °F 94% 30.01 in 10.0 mi ENE 4.6 mph - 0.00 in   Partly Cloudy
9:01 AM 78.8 °F - 77.0 °F 94% 30.03 in 10.0 mi NNE 4.6 mph - N/A   Partly Cloudy
9:53 AM 81.0 °F 85.8 °F 73.0 °F 77% 30.00 in 10.0 mi East 6.9 mph - N/A   Partly Cloudy
10:53 AM 84.0 °F 90.2 °F 73.0 °F 69% 30.01 in 10.0 mi ENE 5.8 mph - N/A   Scattered Clouds
11:00 AM 84.2 °F 90.9 °F 73.4 °F 70% 30.03 in 10.0 mi Variable 3.5 mph - N/A   Mostly Cloudy
11:53 AM 86.0 °F 92.2 °F 72.0 °F 63% 30.00 in 10.0 mi Variable 3.5 mph - N/A   Mostly Cloudy
12:04 PM 87.8 °F 93.8 °F 71.6 °F 58% 30.02 in 10.0 mi Variable 3.5 mph - N/A   Mostly Cloudy
12:34 PM 86.0 °F 91.8 °F 71.6 °F 62% 30.02 in 10.0 mi NNE 4.6 mph - N/A   Overcast
12:53 PM 84.9 °F 92.1 °F 73.9 °F 69% 29.99 in 9.0 mi NNE 6.9 mph - 0.04 in Rain Light Rain
1:15 PM 84.2 °F 89.6 °F 71.6 °F 66% 30.01 in 10.0 mi NE 10.4 mph - 0.00 in   Overcast
1:36 PM 84.2 °F 89.6 °F 71.6 °F 66% 30.01 in 10.0 mi NNE 11.5 mph - 0.00 in Thunderstorm Mostly Cloudy
1:51 PM 87.8 °F 93.8 °F 71.6 °F 58% 30.01 in 10.0 mi NNE 8.1 mph - 0.00 in   Mostly Cloudy
1:53 PM 87.1 °F 93.6 °F 72.0 °F 61% 29.98 in 10.0 mi NNE 8.1 mph - 0.00 in   Mostly Cloudy
2:53 PM 86.0 °F 92.2 °F 72.0 °F 63% 29.97 in 10.0 mi NE 11.5 mph - N/A   Mostly Cloudy
3:53 PM 88.0 °F 92.9 °F 70.0 °F 55% 29.95 in 10.0 mi ENE 11.5 mph - N/A   Partly Cloudy
4:53 PM 86.0 °F 90.1 °F 69.1 °F 57% 29.95 in 10.0 mi NE 12.7 mph - N/A   Mostly Cloudy
5:53 PM 87.1 °F 90.6 °F 68.0 °F 53% 29.96 in 10.0 mi East 13.8 mph 19.6 mph N/A   Mostly Cloudy
6:53 PM 84.9 °F 88.2 °F 68.0 °F 57% 29.95 in 10.0 mi ENE 10.4 mph - N/A   Clear
7:53 PM 82.9 °F 85.4 °F 66.9 °F 58% 29.97 in 10.0 mi ENE 5.8 mph - N/A   Clear
8:53 PM 82.0 °F 84.5 °F 66.9 °F 60% 29.99 in 10.0 mi NE 4.6 mph - N/A   Clear
9:53 PM 81.0 °F 83.0 °F 66.0 °F 60% 30.01 in 10.0 mi ENE 10.4 mph - N/A   Mostly Cloudy
10:53 PM 79.0 °F - 66.9 °F 66% 30.02 in 10.0 mi ENE 5.8 mph - N/A   Clear
11:53 PM 78.1 °F - 66.0 °F 66% 30.01 in 10.0 mi ENE 6.9 mph - N/A   Clear